Regional Weather Roundup
Issued by NWS

Home | Current Version | Previous Version | Graphics & Text | Print | Product List | Glossary On
Versions: 1 2 3 4 5 6 7 8 9 10 11 12 13 14 15 16 17 18 19 20 21 22 23 24 25 26 27 28 29 30 31 32 33 34 35 36 37 38 39 40 41 42 43 44 45 46 47 48 49 50
000
ASUS43 KMKX 171511
RWRWI

WISCONSIN REGIONAL WEATHER ROUNDUP
NATIONAL WEATHER SERVICE MILWAUKEE/SULLIVAN WI
900 AM CST FRI NOV 17 2017

NOTE: "FAIR" INDICATES FEW OR NO CLOUDS BELOW 12,000 FEET WITH NO
SIGNIFICANT WEATHER AND/OR OBSTRUCTIONS TO VISIBILITY.

WIZ001-002-006>008-014>016-023>028-171600-
NORTHWEST WISCONSIN

CITY           SKY/WX    TMP DP  RH WIND       PRES   REMARKS
SUPERIOR ARPT  CLOUDY    34  30  86 S3        29.74F
ASHLAND        CLOUDY    35  27  72 S10       29.76F WCI  27
HAYWARD        CLOUDY    34  27  75 S13       29.74F WCI  25
SIREN          DRIZZLE   33  32  96 S8        29.73S WCI  26
CUMBERLAND     CLOUDY    32  28  86 S12       29.73F WCI  23
RICE LAKE      CLOUDY    34  29  80 SE15      29.76F WCI  25
CHETEK         CLOUDY    34  28  80 S14       29.76F WCI  24
LADYSMITH      CLOUDY    34  29  81 S10G20    29.79F WCI  26
EAU CLAIRE     CLOUDY    35  28  75 SE14      29.77F WCI  26
MENOMONIE      CLOUDY    36  30  80 SE10      29.76F WCI  28
NEW RICHMOND   DRIZZLE   35  30  81 S10G17    29.73S WCI  27
OSCEOLA        LGT RAIN  34  34 100 SE12      29.76S WCI  26
$$

WIZ003>005-009-010-017-018-171600-
NORTH CENTRAL WISCONSIN

CITY           SKY/WX    TMP DP  RH WIND       PRES   REMARKS
MANITOWISH WTR CLOUDY    31  31  98 S20       29.79F WCI  19
ARBOR VITAE    CLOUDY    33  30  88 S13G23    29.81F WCI  24
WOODRUFF       CLOUDY    33  30  88 S13G23    29.81F WCI  24
RHINELANDER    CLOUDY    32  29  88 S14G23    29.84F WCI  22
EAGLE RIVER    CLOUDY    31  30  96 S10G16    29.84F WCI  22
LAND O LAKES   CLOUDY    32  30  92 S9G18     29.85S WCI  24
PHILLIPS       MIX PCPN  32  29  89 S13       29.78F WCI  22
TOMAHAWK       CLOUDY    31  28  86 SE7       29.84F FOG     WCI  25
MEDFORD        CLOUDY    32  28  83 SE13G21   29.81F WCI  22
MERRILL        CLOUDY    33  29  87 S8        29.86F WCI  25
$$

WIZ029-030-035-036-043>047-171600-
CENTRAL WISCONSIN

CITY           SKY/WX    TMP DP  RH WIND       PRES   REMARKS
WAUSAU         CLOUDY    33  28  81 S13       29.87F WCI  24
MOSINEE        CLOUDY    32  30  93 SE10      29.89F WCI  24
MARSHFIELD     CLOUDY    34  27  75 SE13G25   29.83F WCI  25
STEVENS POINT  CLOUDY    33  28  85 SE13G20   29.89F WCI  23
WAUPACA        CLOUDY    37  31  80 SE10G23   29.93F WCI  29
WAUTOMA        CLOUDY    35  29  78 SE15      29.90F WCI  25
WISC RAPIDS    CLOUDY    35  29  78 S8G20     29.89F WCI  29
CAMP DOUGLAS   CLOUDY    36  28  75 SE14G23   29.85F WCI  27
$$

WIZ011>013-019>022-031-037>040-048>050-171600-
NORTHEAST WISCONSIN

CITY           SKY/WX    TMP DP  RH WIND       PRES   REMARKS
ANTIGO         CLOUDY    31  30  95 S16       29.88F WCI  20
SHAWANO        CLOUDY    37  33  83 SE9G16    29.94F WCI  31
OCONTO         CLOUDY    39  36  89 S9        29.97F WCI  33
STURGEON BAY   CLOUDY    39  36  89 SE18G28   29.95F WCI  30
GREEN BAY      CLOUDY    38  35  89 S17G26    29.96F WCI  28
MANITOWOC      CLOUDY    39  35  86 S17G24    30.00F WCI  30
APPLETON       CLOUDY    36  28  75 S17G23    29.94F WCI  25
CLINTONVILLE   CLOUDY    36  30  80 S12G21    29.93F WCI  27
OSHKOSH        CLOUDY    36  30  79 S16G28    29.95F WCI  26
$$

WIZ032>034-041-042-053>061-171600-
SOUTHWEST WISCONSIN

CITY           SKY/WX    TMP DP  RH WIND       PRES   REMARKS
LA CROSSE      LGT RAIN  38  31  76 S12       29.82F WCI  30
SPARTA         CLOUDY    37  31  79 S10       29.85S WCI  29
VIROQUA        CLOUDY    34  32  92 S18G26    29.82S WCI  23
BOSCOBEL       CLOUDY    38  30  73 VRB6      29.88F WCI  33
PRAIRIE DU CHI CLOUDY    37  29  74 SE9G20    29.86F WCI  30
PLATTEVILLE    CLOUDY    36  32  87 SE17      29.90F WCI  25
$$

WIZ056-057-062-063-064-067-068-171600-
SOUTH CENTRAL WISCONSIN

CITY           SKY/WX    TMP DP  RH WIND       PRES   REMARKS
REEDSBURG      CLOUDY    34  29  82 SE13G18   29.88F WCI  25
BARABOO/DELLS  CLOUDY    34  29  80 S18G26    29.88F WCI  23
LONE ROCK      CLOUDY    37  30  75 SE13G22   29.90F WCI  29
MINERAL POINT  CLOUDY    36  34  93 SE16G29   29.88F WCI  26
MADISON        CLOUDY    35  29  78 S16       29.94F WCI  25
MIDDLETON      CLOUDY    37  31  80 S13G24    29.93F WCI  28
WATERTOWN      CLOUDY    35  32  88 S13G18    29.97F WCI  26
MONROE         CLOUDY    34  30  86 SE23      29.93F WCI  22
JANESVILLE     CLOUDY    37  30  75 S14G21    29.99F WCI  29
$$

WIZ051-052-058>065-066-070>072-171600-
SOUTHEAST WISCONSIN

CITY           SKY/WX    TMP DP  RH WIND       PRES   REMARKS
MILWAUKEE      CLOUDY    39  32  76 S9        30.04F WCI  33
WAUKESHA       NOT AVBL
MILWAUKEE/TIMM CLOUDY    36  28  75 S12       30.04F WCI  27
RACINE         PTSUNNY   38  32  79 S18G29    30.06F WCI  28
BURLINGTON     CLOUDY    38  35  88 S13G18    30.02F WCI  30
KENOSHA        PTSUNNY   38  30  73 S15G25    30.04F WCI  29
FOND DU LAC    CLOUDY    36  29  75 S21       29.97F WCI  25
SHEBOYGAN      CLOUDY    37  34  89 S17G23    30.01F WCI  27
WEST BEND      CLOUDY    34  32  93 S9        30.00F WCI  26
JUNEAU         CLOUDY    34  30  85 SE15      29.98F WCI  24
$$

LSZ147-162-171600-
LAKE SUPERIOR

STATION/POSITION TIME  TEMP    WIND        PRES    WAVE
                       AIR SEA DIR/SP/G            HT/PER
                 (UTC) (F)     (DEG/KT/KT) (MB)    (FT/S)
DEVILS ISLAND    1500   35     190/  6/  8 1007.8F
SAXON HARBOR     1430   36     190/ 12/ 21 1007.5R
$$

LMZ867-665-643>646-171600-
LAKE MICHIGAN

STATION/POSITION TIME  TEMP    WIND        PRES    WAVE
                       AIR SEA DIR/SP/G            HT/PER
                 (UTC) (F)     (DEG/KT/KT) (MB)    (FT/S)
N MID LAKE BUOY  1450   38 49  160/ 21/ 25 1017.6F   4/ 5
NORTHPORT PIER   1440   39     150/ 13/ 20 1016.3F
KEWAUNEE LAKESHO 1448   40     170/ 19/ 22 1014.8F
SHEBOYGAN LAKESH 1300   39     190/ 14       N/A
PORT WASHINGTON  1440   39     190/ 16/ 20 1018.3F
MILWAUKEE LAKESH 1450   37     180/ 15/ 16   N/A
S MID LAKE BUOY  1350   40 50  160/ 19/ 25 1019.4F   5/ 5
KENOSHA   LAKESH 1500   37     180/ 18/ 26 1017.3
$$

TC  - TEMPERATURE IN CELSIUS
VSB - VISIBILITY IN STATUTE MILES
WCI - WIND CHILL INDEX
HX  - HEAT INDEX





USA.gov is the U.S. government's official web portal to all federal, state and local government web resources and services.